Weather History for Jackson, WY

Change the Weather History Date:

Thursday, March 20, 2014

  Actual Average Record
Temperature  
Mean Temperature 32 °F -  
Max Temperature 39 °F 39 °F 53 °F (2004)
Min Temperature 24 °F 10 °F -20 °F (1965)
Degree Days  
Heating Degree Days 34    
Moisture  
Dew Point 14 °F    
Average Humidity 50    
Maximum Humidity 64    
Minimum Humidity 32    
Precipitation  
Precipitation 0.00 in - - ()
Sea Level Pressure  
Sea Level Pressure 29.94 in    
Wind  
Wind Speed 13 mph (SW)    
Max Wind Speed 28 mph    
Max Gust Speed 41 mph    
Visibility 10 miles    
Events      
Averages and records for this station are not official NWS values.
T = Trace of Precipitation, MM = Missing Value Source: NWS Daily Summary

Daily Weather History Graph

Daily Weather History Graph

Search for Another Location

Airport:

Trip Planner

Search our weather history database for the weather conditions in past years. The results will help you decide how hot, cold, wet, or windy it might be!

Date:

Astronomy

Mar. 20, 2014 Rise Set
Actual Time 7:26 AM MDT 7:35 PM MDT
Civil Twilight 6:57 AM MDT 8:04 PM MDT
Nautical Twilight 6:23 AM MDT 8:37 PM MDT
Astronomical Twilight 5:49 AM MDT 9:12 PM MDT
Moon No Moon Rise 9:27 AM MDT (3/20)
Length of Visible Light 13h 06m
Length of Day
12h 09m
Waning Gibbous, 83% of the Moon is Illuminated
Mar 20
Waning Gibbous
Mar 23
Last Quarter
Mar 30
New
Apr 7
First Quarter
Apr 15
Full

Hourly Weather History & Observations

Time (MDT) Temp. Windchill Dew Point Humidity Pressure Visibility Wind Dir Wind Speed Gust Speed Precip Events Conditions
12:15 AM 30.2 °F 20.2 °F 17.6 °F 60% 30.02 in 10.0 mi SSW 12.7 mph - N/A   Partly Cloudy
12:35 AM 30.2 °F 18.9 °F 17.6 °F 60% 30.01 in 10.0 mi SSW 16.1 mph 19.6 mph N/A   Partly Cloudy
12:55 AM 30.2 °F 19.8 °F 17.6 °F 60% 30.01 in 10.0 mi SSW 13.8 mph - N/A   Clear
1:15 AM 30.2 °F 20.2 °F 17.6 °F 60% 30.01 in 10.0 mi SSW 12.7 mph - N/A   Clear
1:35 AM 28.4 °F 19.7 °F 17.6 °F 64% 30.00 in 10.0 mi SW 9.2 mph - N/A   Clear
1:55 AM 28.4 °F 19.1 °F 15.8 °F 59% 30.00 in 10.0 mi WSW 10.4 mph - N/A   Clear
2:15 AM 28.4 °F 19.1 °F 15.8 °F 59% 30.00 in 10.0 mi SW 10.4 mph - N/A   Clear
2:35 AM 28.4 °F 17.5 °F 15.8 °F 59% 30.00 in 10.0 mi SW 13.8 mph - N/A   Clear
2:55 AM 28.4 °F 18.0 °F 15.8 °F 59% 30.00 in 10.0 mi SW 12.7 mph - N/A   Clear
3:15 AM 26.6 °F 16.8 °F 14.0 °F 59% 29.99 in 10.0 mi SW 10.4 mph - N/A   Clear
3:35 AM 26.6 °F 16.2 °F 14.0 °F 59% 29.99 in 10.0 mi SW 11.5 mph - N/A   Clear
3:55 AM 26.6 °F 17.5 °F 12.2 °F 55% 29.97 in 10.0 mi SW 9.2 mph - N/A   Clear
4:15 AM 26.6 °F 14.7 °F 12.2 °F 55% 29.97 in 10.0 mi SW 15.0 mph - N/A   Clear
4:35 AM 26.6 °F 16.2 °F 12.2 °F 55% 29.97 in 10.0 mi SW 11.5 mph - N/A   Clear
4:55 AM 26.6 °F 16.8 °F 12.2 °F 55% 29.96 in 10.0 mi SW 10.4 mph - N/A   Clear
5:15 AM 24.8 °F 14.6 °F 12.2 °F 59% 29.96 in 10.0 mi WSW 10.4 mph - N/A   Clear
5:35 AM 26.6 °F 16.8 °F 12.2 °F 55% 29.96 in 10.0 mi SW 10.4 mph - N/A   Clear
5:55 AM 26.6 °F 18.2 °F 12.2 °F 55% 29.95 in 10.0 mi WSW 8.1 mph - N/A   Clear
6:15 AM 24.8 °F 15.3 °F 12.2 °F 59% 29.95 in 10.0 mi SW 9.2 mph - N/A   Clear
6:35 AM 24.8 °F 20.5 °F 12.2 °F 59% 29.94 in 10.0 mi WSW 3.5 mph - N/A   Clear
6:51 AM 24.8 °F - 12.2 °F 59% 29.93 in 10.0 mi Calm Calm - N/A   Clear
6:55 AM 24.8 °F 20.5 °F 12.2 °F 59% 29.93 in - North 3.5 mph - N/A   Clear
7:55 AM 28.4 °F 21.2 °F 12.2 °F 51% 29.93 in 10.0 mi South 6.9 mph - N/A   Clear
8:54 AM 30.2 °F 21.9 °F 15.8 °F 55% 29.91 in 10.0 mi SW 9.2 mph - N/A   Clear
9:54 AM 35.6 °F 25.9 °F 15.8 °F 44% 29.91 in 10.0 mi South 16.1 mph - N/A   Mostly Cloudy
10:52 AM 35.6 °F 25.2 °F 17.6 °F 48% 29.90 in 10.0 mi South 18.4 mph 24.2 mph N/A   Clear
11:58 AM 37.4 °F 26.6 °F 15.8 °F 41% 29.89 in 10.0 mi SSW 21.9 mph 27.6 mph N/A   Clear
12:51 PM 39.2 °F 29.3 °F 15.8 °F 39% 29.87 in 10.0 mi SW 20.7 mph 35.7 mph N/A   Clear
1:51 PM 39.2 °F 28.5 °F 15.8 °F 39% 29.87 in 10.0 mi SW 24.2 mph 28.8 mph N/A   Clear
2:51 PM 39.2 °F 27.8 °F 14.0 °F 36% 29.86 in 10.0 mi SW 27.6 mph 41.4 mph N/A   Clear
3:55 PM 39.2 °F 28.0 °F 17.6 °F 42% 29.86 in 10.0 mi WSW 26.5 mph 35.7 mph N/A   Scattered Clouds
4:51 PM 39.2 °F 29.8 °F 19.4 °F 45% 29.88 in 10.0 mi SSW 18.4 mph 29.9 mph N/A   Mostly Cloudy
5:51 PM 37.4 °F 27.2 °F 17.6 °F 45% 29.88 in 10.0 mi SSW 19.6 mph 32.2 mph N/A   Mostly Cloudy
6:51 PM 37.4 °F 28.2 °F 17.6 °F 45% 29.89 in 10.0 mi SSW 16.1 mph - N/A   Mostly Cloudy
7:52 PM 35.6 °F 25.2 °F 12.2 °F 38% 29.89 in 10.0 mi SW 18.4 mph 28.8 mph N/A   Scattered Clouds
8:55 PM 33.8 °F 23.9 °F 12.2 °F 41% 29.91 in 10.0 mi WSW 15.0 mph 31.1 mph N/A   Clear
9:15 PM 33.8 °F 24.3 °F 8.6 °F 35% 29.92 in 10.0 mi SW 13.8 mph 20.7 mph N/A   Clear
9:35 PM 33.8 °F 23.2 °F 6.8 °F 32% 29.93 in 10.0 mi WSW 17.3 mph 23.0 mph N/A   Clear
9:55 PM 32.0 °F 19.8 °F 8.6 °F 38% 29.93 in 10.0 mi SW 20.7 mph 25.3 mph N/A   Clear
10:15 PM 32.0 °F 20.8 °F 8.6 °F 38% 29.94 in 10.0 mi SSW 17.3 mph 25.3 mph N/A   Clear
10:35 PM 30.2 °F 19.3 °F 8.6 °F 40% 29.95 in 10.0 mi SSW 15.0 mph 21.9 mph N/A   Clear
10:55 PM 30.2 °F 19.8 °F 10.4 °F 44% 29.96 in 10.0 mi South 13.8 mph 19.6 mph N/A   Clear
11:15 PM 30.2 °F 18.9 °F 8.6 °F 40% 29.96 in 10.0 mi South 16.1 mph 25.3 mph N/A   Clear
11:35 PM 28.4 °F 16.6 °F 10.4 °F 47% 29.96 in 10.0 mi SSE 16.1 mph - N/A   Mostly Cloudy
11:55 PM 28.4 °F 18.0 °F 10.4 °F 47% 29.97 in 10.0 mi South 12.7 mph - N/A   Overcast